Location: Appleton
(44.2618°N, 88.4157°W)
Time: 19:55:04
(UTC+00:00)

Vanguard 1 Rocket - All Passes

Search period start: 28 February 2021 00:00
Search period end: 10 March 2021 00:00
Orbit: 654 x 4222 km, 34.3° (Epoch: 28 February)

Date Brightness Start Highest point End Pass type
(mag) Time Alt. Az. Time Alt. Az. Time Alt. Az.
28 Feb - 04:03:11 10° SSE 04:15:04 17° SE 04:28:20 10° E visible
28 Feb - 06:21:22 10° SSW 06:42:39 44° SSE 07:04:41 10° E visible
28 Feb - 08:48:17 10° WSW 09:13:40 63° S 09:33:47 10° E visible
28 Feb - 11:19:59 10° W 11:44:34 59° SSW 11:59:49 10° ESE visible
28 Feb - 13:54:33 10° W 14:11:38 32° SW 14:22:13 10° SSE daylight
01 Mar - 05:11:00 10° SSW 05:29:08 33° SE 05:49:50 10° E visible
01 Mar - 07:35:05 10° SW 07:58:54 58° SSE 08:21:03 10° E visible
01 Mar - 10:04:50 10° W 10:30:34 64° S 10:48:32 10° ESE visible
01 Mar - 12:38:08 10° W 12:59:44 45° SSW 13:12:48 10° SE daylight
01 Mar - 15:16:07 10° W 15:24:21 15° WSW 15:30:44 10° SSW daylight
02 Mar - 04:02:34 10° S 04:16:29 22° SE 04:32:57 10° E visible
02 Mar - 06:23:02 10° SW 06:44:27 49° SSE 07:07:29 10° E visible
02 Mar - 08:50:31 10° WSW 09:15:54 65° S 09:36:32 10° E visible
02 Mar - 11:22:19 10° W 11:46:47 56° SSW 12:02:26 10° SE visible
02 Mar - 13:57:23 10° W 14:13:28 27° SW 14:24:01 10° S daylight
03 Mar - 02:59:44 10° SE 03:04:42 11° ESE 03:10:03 10° ESE night (unlit)
03 Mar - 05:12:15 10° SSW 05:30:43 39° SE 05:52:50 10° E visible
03 Mar - 07:37:12 10° WSW 08:00:59 61° SSE 08:23:46 10° E visible
03 Mar - 10:07:11 10° W 10:32:50 63° SSW 10:51:14 10° ESE visible
03 Mar - 12:40:35 10° W 13:01:41 40° SW 13:15:02 10° SSE daylight
03 Mar - 15:22:20 10° WSW 15:25:57 11° WSW 15:29:12 10° SW daylight
04 Mar - 04:02:59 10° S 04:17:55 27° SE 04:36:39 10° E visible
04 Mar - 06:24:58 10° SW 06:46:20 54° SSE 07:10:10 10° E visible
04 Mar - 08:52:52 10° WSW 09:18:07 66° S 09:39:14 10° ESE visible
04 Mar - 11:24:42 10° W 11:48:53 52° SSW 12:04:53 10° SE visible
04 Mar - 14:00:33 10° W 14:15:08 23° SW 14:25:23 10° S daylight
05 Mar - 02:56:32 10° SSE 03:06:03 16° ESE 03:17:25 10° E visible
05 Mar - 05:13:52 10° SSW 05:32:24 44° SE 05:55:36 10° E visible
05 Mar - 07:39:30 10° WSW 08:03:07 64° S 08:26:25 10° E visible
05 Mar - 10:09:35 10° W 10:35:01 61° SSW 10:53:49 10° ESE visible
05 Mar - 12:43:12 10° W 13:03:29 35° SW 13:17:01 10° SSE daylight
06 Mar - 04:04:04 10° S 04:19:26 32° SE 04:39:49 10° E visible
06 Mar - 06:27:08 10° SW 06:48:18 58° SSE 07:12:46 10° E visible
06 Mar - 08:55:18 10° W 09:20:20 65° S 09:41:51 10° ESE visible
06 Mar - 11:27:09 10° W 11:50:49 48° SSW 12:07:10 10° SE visible
06 Mar - 14:04:19 10° W 14:16:41 18° SW 14:26:05 10° SSW daylight
07 Mar - 02:56:10 10° SSE 03:07:27 20° SE 03:22:02 10° E visible
07 Mar - 05:15:48 10° SW 05:34:10 49° SSE 05:58:14 10° E visible
07 Mar - 07:41:55 10° WSW 08:05:16 65° S 08:29:01 10° E visible
07 Mar - 10:12:03 10° W 10:37:06 57° SSW 10:56:15 10° SE visible
07 Mar - 12:46:01 10° W 13:05:09 30° SW 13:18:39 10° S daylight
08 Mar - 04:05:36 10° SSW 04:21:02 37° SE 04:42:39 10° E visible
08 Mar - 06:29:28 10° WSW 06:50:21 61° SSE 07:15:19 10° E visible
08 Mar - 08:57:48 10° W 09:22:30 64° S 09:44:22 10° ESE visible
08 Mar - 11:29:42 10° W 11:52:38 43° SW 12:09:13 10° SSE visible
08 Mar - 14:09:17 10° W 14:18:08 14° WSW 14:25:31 10° SW daylight
09 Mar - 02:56:52 10° S 03:08:55 25° SE 03:25:40 10° E visible
09 Mar - 05:17:58 10° SW 05:36:04 53° SSE 06:00:45 10° E visible
09 Mar - 07:44:27 10° WSW 08:07:27 66° S 08:31:33 10° ESE visible
09 Mar - 10:14:33 10° W 10:39:04 53° SSW 10:58:31 10° SE visible
09 Mar - 12:49:10 10° W 13:06:41 26° SW 13:19:50 10° S daylight
